GW0655 Weather Reports


time (UTC)temp
F
wind
direction
speed
knots
gust
knots
rain 1hr
in
rain 24hr
in
rain mn
in
humidity
%
barometer
mb
20260510201452 89 142 1.7 1.7 0.00 0.00 0.00 56 1014.1
20260510200947 89 242 2.6 2.6 0.00 0.00 0.00 57 1014.1
20260510200442 89 216 1.7 1.7 0.00 0.00 0.00 57 1014.1
20260510195941 89 178 0.9 0.9 0.00 0.00 0.00 58 1014.1
20260510195439 89 197 4.3 5.2 0.00 0.00 0.00 58 1014.5
20260510194934 88 282 2.6 2.6 0.00 0.00 0.00 58 1014.5
20260510194430 87 229 2.6 2.6 0.00 0.00 0.00 61 1014.5
20260510193926 88 112 2.6 4.3 0.00 0.00 0.00 61 1014.5
20260510193421 87 160 3.5 4.3 0.00 0.00 0.00 60 1014.5
20260510192917 88 155 2.6 2.6 0.00 0.00 0.00 61 1014.5
20260510192412 88 152 3.5 6.1 0.00 0.00 0.00 59 1014.5
20260510191903 88 160 1.7 1.7 0.00 0.00 0.00 60 1014.5
20260510191359 88 120 2.6 4.3 0.00 0.00 0.00 60 1014.5
20260510190856 88 118 4.3 6.1 0.00 0.00 0.00 61 1014.5
20260510190354 87 177 2.6 2.6 0.00 0.00 0.00 63 1014.5
20260510185850 87 140 2.6 2.6 0.00 0.00 0.00 61 1014.5
20260510185348 87 190 3.5 4.3 0.00 0.00 0.00 62 1014.5
20260510184845 87 126 1.7 2.6 0.00 0.00 0.00 64 1014.5
20260510184342 86 125 4.3 7.0 0.00 0.00 0.00 62 1014.5
20260510183841 86 219 3.5 5.2 0.00 0.00 0.00 64 1014.5
20260510183338 86 75 3.5 5.2 0.00 0.00 0.00 64 1014.8
20260510182833 85 182 2.6 4.3 0.00 0.00 0.00 66 1014.8
20260510182330 85 196 2.6 4.3 0.00 0.00 0.00 67 1014.8
20260510181826 86 200 4.3 6.1 0.00 0.00 0.00 65 1015.2
20260510181324 85 149 2.6 4.3 0.00 0.00 0.00 67 1015.2
20260510180820 85 168 0.9 1.7 0.00 0.00 0.00 67 1015.2
20260510180316 84 214 2.6 4.3 0.00 0.00 0.00 67 1015.2
20260510175808 84 146 3.5 5.2 0.00 0.00 0.00 67 1015.2
20260510175306 83 236 1.7 1.7 0.00 0.00 0.00 68 1015.5
20260510174801 84 208 2.6 4.3 0.00 0.00 0.00 68 1015.5
20260510174257 83 142 2.6 4.3 0.00 0.00 0.00 68 1015.5
20260510173754 83 177 5.2 6.1 0.00 0.00 0.00 68 1015.5
20260510173250 82 212 1.7 2.6 0.00 0.00 0.00 72 1015.8
20260510172745 82 226 1.7 2.6 0.00 0.00 0.00 72 1015.8
20260510172241 81 155 2.6 2.6 0.00 0.00 0.00 74 1015.8
20260510171738 81 128 4.3 6.1 0.00 0.00 0.00 73 1016.2
20260510171236 79 77 4.3 6.1 0.00 0.00 0.00 75 1016.2
20260510170733 80 112 4.3 5.2 0.00 0.00 0.00 75 1016.2
20260510170228 80 230 2.6 5.2 0.00 0.00 0.00 75 1016.5
20260510165724 80 208 4.3 6.1 0.00 0.00 0.00 75 1016.2
20260510165220 78 67 2.6 2.6 0.00 0.00 0.00 78 1016.5
20260510164718 79 172 5.2 6.1 0.00 0.00 0.00 76 1016.5
20260510164215 78 174 2.6 2.6 0.00 0.00 0.00 79 1016.5
20260510163710 78 165 0.9 1.7 0.00 0.00 0.00 80 1016.5
20260510163206 78 201 2.6 4.3 0.00 0.00 0.00 80 1016.5
20260510162705 77 201 0.9 1.7 0.00 0.00 0.00 81 1016.5
20260510162203 77 174 1.7 2.6 0.00 0.00 0.00 81 1016.5
20260510161658 78 180 2.6 4.3 0.00 0.00 0.00 81 1016.5
20260510161155 78 132 3.5 4.3 0.00 0.00 0.00 81 1016.5
20260510160652 78 160 0.9 0.9 0.00 0.00 0.00 81 1016.2
20260510160147 77 141 0.0 0.9 0.00 0.00 0.00 83 1016.5
20260510155643 77 162 2.6 2.6 0.00 0.00 0.00 83 1016.2
20260510155139 77 241 1.7 1.7 0.00 0.00 0.00 83 1016.2
20260510154635 77 148 5.2 7.0 0.00 0.00 0.00 82 1016.2
20260510154131 76 143 2.6 2.6 0.00 0.00 0.00 84 1016.2
20260510153626 76 129 1.7 2.6 0.00 0.00 0.00 84 1016.2
20260510153123 76 192 2.6 4.3 0.00 0.00 0.00 84 1016.2
20260510152620 77 178 2.6 4.3 0.00 0.00 0.00 84 1016.2
20260510152116 77 43 0.9 0.9 0.00 0.00 0.00 84 1016.2
20260510151613 77 98 1.7 2.6 0.00 0.00 0.00 84 1016.2
20260510151111 76 139 2.6 4.3 0.00 0.00 0.00 84 1016.2
20260510150606 77 138 2.6 2.6 0.00 0.00 0.00 83 1016.2
20260510145559 75 222 2.6 2.6 0.00 0.00 0.00 86 1016.2
20260510145055 75 154 3.5 5.2 0.00 0.00 0.00 86 1015.8
20260510144552 75 168 1.7 2.6 0.00 0.00 0.00 86 1015.8
20260510144048 75 139 2.6 2.6 0.00 0.00 0.00 86 1015.8
20260510143543 76 160 0.9 1.7 0.00 0.00 0.00 85 1015.5
20260510143040 76 248 0.9 1.7 0.00 0.00 0.00 84 1015.8
20260510142537 76 191 0.0 0.9 0.00 0.00 0.00 85 1015.8
20260510142033 76 58 3.5 4.3 0.00 0.00 0.00 85 1015.8
20260510141530 75 181 2.6 4.3 0.00 0.00 0.00 87 1015.5
20260510141028 75 107 2.6 2.6 0.00 0.00 0.00 86 1015.5
20260510140524 75 152 2.6 2.6 0.00 0.00 0.00 85 1015.5
20260510140023 76 100 2.6 4.3 0.00 0.00 0.00 84 1015.2
20260510135519 75 193 0.9 0.9 0.00 0.00 0.00 86 1015.2
20260510135016 75 134 0.9 0.9 0.00 0.00 0.00 86 1015.2
20260510134513 74 191 1.7 1.7 0.00 0.00 0.00 87 1014.8
20260510134010 74 225 0.0 0.9 0.00 0.00 0.00 87 1015.2
20260510133505 74 150 1.7 1.7 0.00 0.00 0.00 87 1015.2
20260510133002 73 176 0.9 1.7 0.00 0.00 0.00 89 1015.2
20260510132459 73 122 3.5 4.3 0.00 0.00 0.00 88 1014.8
20260510131956 72 171 2.6 2.6 0.00 0.00 0.00 89 1014.8
20260510131454 72 161 3.5 4.3 0.00 0.00 0.00 90 1014.8
20260510130950 71 172 1.7 2.6 0.00 0.00 0.00 91 1014.5
20260510130447 71 139 1.7 1.7 0.00 0.00 0.00 92 1014.5
20260510125944 71 112 1.7 2.6 0.00 0.00 0.00 93 1014.5
20260510125440 70 110 1.7 1.7 0.00 0.00 0.00 94 1014.1
20260510124937 70 237 0.0 0.9 0.00 0.00 0.00 94 1014.1
20260510124433 70 241 0.9 1.7 0.00 0.00 0.00 94 1013.8
20260510123930 69 164 1.7 1.7 0.00 0.00 0.00 94 1014.1
20260510123426 69 226 0.9 0.9 0.00 0.00 0.00 95 1014.1
20260510122922 69 238 0.0 0.9 0.00 0.00 0.00 95 1014.1
20260510122417 69 216 0.0 0.9 0.00 0.00 0.00 95 1014.1
20260510121913 68 236 0.0 0.0 0.00 0.00 0.00 95 1013.8
20260510121411 68 235 0.0 0.0 0.00 0.00 0.00 95 1013.5
20260510120908 68 170 0.9 1.7 0.00 0.00 0.00 95 1013.8
20260510120406 68 199 0.9 0.9 0.00 0.00 0.00 95 1013.5
20260510115901 68 232 0.0 0.0 0.00 0.00 0.00 94 1013.5
20260510115358 68 231 0.0 0.0 0.00 0.00 0.00 94 1013.5
20260510114854 68 205 0.9 0.9 0.00 0.00 0.00 94 1013.5
20260510114351 68 171 0.9 0.9 0.00 0.00 0.00 93 1013.5
20260510113851 68 229 0.0 0.0 0.00 0.00 0.00 93 1013.5
20260510113347 69 235 0.0 0.0 0.00 0.00 0.00 93 1013.1
20260510112844 69 205 0.9 0.9 0.00 0.00 0.00 92 1013.5
20260510112341 69 240 0.0 0.0 0.00 0.00 0.00 92 1013.5
20260510111837 69 226 0.0 0.9 0.00 0.00 0.00 92 1013.5
20260510111334 69 210 0.9 0.9 0.00 0.00 0.00 92 1013.1
20260510110833 69 231 0.9 0.9 0.00 0.00 0.00 92 1013.1
20260510110331 69 209 0.9 0.9 0.00 0.00 0.00 92 1013.1
20260510105828 69 269 0.0 0.0 0.00 0.00 0.00 91 1013.1
20260510105328 70 245 0.0 0.0 0.00 0.00 0.00 91 1013.1
20260510104824 70 251 0.0 0.0 0.00 0.00 0.00 91 1012.7
20260510104321 70 221 0.9 0.9 0.00 0.00 0.00 91 1012.7
20260510103817 70 237 1.7 1.7 0.00 0.00 0.00 91 1012.7
20260510103314 70 170 0.9 0.9 0.00 0.00 0.00 91 1012.4
20260510102810 70 183 0.9 1.7 0.00 0.00 0.00 91 1012.7
20260510102306 70 151 0.9 1.7 0.00 0.00 0.00 90 1012.4
20260510101803 70 239 0.0 0.0 0.00 0.00 0.00 90 1012.7
20260510101301 70 281 0.9 0.9 0.00 0.00 0.00 90 1012.7
20260510100757 70 216 2.6 2.6 0.00 0.00 0.00 90 1012.7
20260510100255 70 195 2.6 2.6 0.00 0.00 0.00 90 1012.7
20260510095750 70 225 1.7 1.7 0.00 0.00 0.00 89 1012.7
20260510095246 70 173 0.9 0.9 0.00 0.00 0.00 89 1012.7
20260510094744 70 268 0.9 1.7 0.00 0.00 0.00 89 1012.4
20260510094240 70 169 1.7 2.6 0.00 0.00 0.00 89 1012.7
20260510093736 70 237 0.0 0.0 0.00 0.00 0.00 89 1012.4
20260510093233 70 228 1.7 1.7 0.00 0.00 0.00 89 1012.4
20260510092730 69 198 0.9 0.9 0.00 0.00 0.00 89 1012.7
20260510092226 69 200 1.7 2.6 0.00 0.00 0.00 89 1012.7
20260510091721 69 129 0.9 1.7 0.00 0.00 0.00 89 1012.4
20260510091218 69 226 0.9 0.9 0.00 0.00 0.00 89 1012.7
20260510090714 69 243 0.0 0.0 0.00 0.00 0.00 89 1012.7
20260510090212 69 231 0.0 0.0 0.00 0.00 0.00 89 1012.7
20260510085707 69 211 0.0 0.0 0.00 0.00 0.00 89 1012.4
20260510085202 69 248 0.0 0.9 0.00 0.00 0.00 89 1012.7
20260510084658 69 234 0.0 0.9 0.00 0.00 0.00 89 1012.7
20260510084155 69 235 0.9 0.9 0.00 0.00 0.00 89 1012.7
20260510083652 69 211 0.9 0.9 0.00 0.00 0.00 89 1012.7
20260510083149 69 227 0.0 0.9 0.00 0.00 0.00 88 1012.7
20260510082645 69 248 0.0 0.0 0.00 0.00 0.00 88 1012.7
20260510082141 69 247 0.0 0.0 0.00 0.00 0.00 87 1012.7
20260510081636 69 194 0.0 0.0 0.00 0.00 0.00 87 1013.1
20260510081132 70 234 0.0 0.0 0.00 0.00 0.00 87 1012.7
20260510080631 70 223 0.0 0.0 0.00 0.00 0.00 86 1013.1
20260510080128 70 241 0.0 0.0 0.00 0.00 0.00 86 1012.7
20260510075625 70 243 0.0 0.9 0.00 0.00 0.00 86 1012.7
20260510075122 70 242 0.9 0.9 0.00 0.00 0.00 85 1012.7
20260510074620 70 244 0.0 0.9 0.00 0.00 0.00 85 1012.7
20260510074115 70 251 0.0 0.0 0.00 0.00 0.00 85 1012.7
20260510073611 70 208 0.0 0.0 0.00 0.00 0.00 85 1012.7
20260510073108 70 246 0.0 0.0 0.00 0.00 0.00 85 1013.1
20260510072605 70 196 0.9 0.9 0.00 0.00 0.00 84 1012.7
20260510072101 71 229 0.0 0.0 0.00 0.00 0.00 84 1012.7
20260510071557 71 238 0.0 0.0 0.00 0.00 0.00 83 1012.7
20260510071055 71 233 0.0 0.0 0.00 0.00 0.00 83 1012.7
20260510070551 71 241 0.0 0.0 0.00 0.00 0.00 82 1012.7
20260510070049 71 247 0.0 0.0 0.00 0.00 0.00 82 1012.7
20260510065545 71 246 0.0 0.9 0.00 0.00 0.00 82 1012.7
20260510065041 71 191 0.0 0.9 0.00 0.00 0.00 82 1012.7
20260510064537 71 240 0.0 0.0 0.00 0.00 0.00 82 1012.7
20260510064034 71 237 0.0 0.0 0.00 0.00 0.00 81 1012.7
20260510063531 71 221 0.0 0.0 0.00 0.00 0.00 81 1012.7
20260510063028 71 247 0.0 0.0 0.00 0.00 0.00 80 1012.7
20260510062524 72 209 0.9 0.9 0.00 0.00 0.00 80 1012.7
20260510062019 72 240 0.0 0.0 0.00 0.00 0.00 80 1012.7
20260510061516 72 231 0.9 0.9 0.00 0.00 0.00 79 1012.7
20260510061013 72 143 0.9 0.9 0.00 0.00 0.00 79 1012.7
20260510060510 72 201 0.9 1.7 0.00 0.00 0.00 79 1012.7
20260510060006 72 202 0.9 0.9 0.00 0.00 0.00 79 1012.7
20260510055501 72 236 0.9 0.9 0.00 0.00 0.00 79 1012.4
20260510055000 72 157 1.7 1.7 0.00 0.00 0.00 79 1012.7
20260510054455 73 178 0.0 0.0 0.00 0.00 0.00 79 1012.4
20260510053950 73 161 2.6 4.3 0.00 0.00 0.00 78 1012.4
20260510053445 73 202 0.9 0.9 0.00 0.00 0.00 79 1012.7
20260510052942 73 235 0.0 0.9 0.00 0.00 0.00 79 1012.7
20260510052438 73 141 0.9 1.7 0.00 0.00 0.00 79 1012.4
20260510051934 73 177 0.9 0.9 0.00 0.00 0.00 79 1012.7
20260510051431 73 250 0.0 0.0 0.00 0.00 0.00 80 1012.7
20260510050927 73 239 0.0 0.0 0.00 0.00 0.00 81 1012.7
20260510050424 73 196 0.0 0.0 0.00 0.00 0.00 81 1012.7
20260510045921 73 209 0.0 0.9 0.00 0.01 0.01 80 1012.4
20260510045419 74 176 0.0 0.0 0.00 0.01 0.01 80 1012.7
20260510044915 73 176 0.0 0.0 0.00 0.01 0.01 81 1012.4
20260510044412 74 202 0.0 0.0 0.00 0.01 0.01 81 1012.4
20260510043909 74 241 0.0 0.0 0.00 0.01 0.01 81 1012.4
20260510043405 74 211 0.0 0.0 0.00 0.01 0.01 81 1012.7
20260510042903 74 241 0.0 0.0 0.00 0.01 0.01 81 1012.4
20260510042359 74 193 0.0 0.9 0.00 0.01 0.01 81 1012.4
20260510041854 75 247 0.0 0.0 0.00 0.01 0.01 80 1012.4
20260510041352 75 184 0.0 0.9 0.00 0.01 0.01 81 1012.7
20260510040849 75 212 0.0 0.0 0.00 0.01 0.01 80 1012.4
20260510040346 75 169 0.0 0.9 0.00 0.01 0.01 81 1012.4
20260510035841 75 209 0.0 0.9 0.00 0.01 0.01 81 1012.4
20260510035337 76 243 0.0 0.9 0.00 0.01 0.01 81 1012.4
20260510034833 76 226 0.9 0.9 0.00 0.01 0.01 81 1012.0
20260510034331 76 254 0.9 0.9 0.00 0.01 0.01 81 1012.0
20260510033828 76 183 0.9 0.9 0.00 0.01 0.01 81 1012.0
20260510033325 76 223 0.0 0.9 0.00 0.01 0.01 80 1012.0
20260510032821 76 224 0.0 0.0 0.00 0.01 0.01 80 1011.7
20260510032318 76 229 0.0 0.0 0.00 0.01 0.01 80 1011.7
20260510031814 76 230 0.0 0.0 0.00 0.01 0.01 81 1011.7
20260510031309 77 192 0.0 0.0 0.00 0.01 0.01 80 1011.7
20260510030803 77 207 0.0 0.0 0.00 0.01 0.01 80 1011.7
20260510030300 77 240 0.0 0.0 0.00 0.01 0.01 80 1011.7
20260510025757 77 196 0.0 0.0 0.00 0.01 0.01 80 1011.3
20260510025255 77 197 0.0 0.9 0.00 0.01 0.01 79 1011.3
20260510024751 78 210 0.0 0.0 0.00 0.01 0.01 79 1011.0
20260510024248 78 200 0.0 0.0 0.00 0.01 0.01 78 1011.3
20260510023744 78 218 0.0 0.0 0.00 0.01 0.01 78 1011.0
20260510023241 79 210 0.0 0.0 0.00 0.01 0.01 78 1011.3
20260510022738 79 226 0.0 0.0 0.00 0.01 0.01 77 1011.0
20260510022237 79 204 0.0 0.0 0.00 0.01 0.01 77 1011.0
20260510021732 80 203 0.0 0.0 0.00 0.01 0.01 76 1011.0
20260510021230 80 225 0.0 0.9 0.00 0.01 0.01 76 1011.0
20260510020730 80 217 0.0 0.9 0.00 0.01 0.01 75 1010.7
20260510020226 80 200 0.9 0.9 0.00 0.01 0.01 75 1010.7
20260510015722 81 233 0.9 0.9 0.00 0.01 0.01 74 1010.7
20260510015218 81 236 0.0 0.0 0.00 0.01 0.01 73 1010.7
20260510014713 81 232 0.9 0.9 0.00 0.01 0.01 73 1010.7
20260510014211 82 165 0.9 0.9 0.00 0.01 0.01 73 1010.7
20260510013706 82 201 0.9 0.9 0.00 0.01 0.01 72 1010.3
20260510013202 82 189 0.0 0.0 0.00 0.01 0.01 71 1010.3
20260510012701 82 179 0.9 1.7 0.00 0.01 0.01 71 1010.3
20260510012157 83 215 1.7 2.6 0.00 0.01 0.01 70 1010.3
20260510011652 83 224 0.0 0.0 0.00 0.01 0.01 69 1010.3
20260510011148 84 249 0.0 0.0 0.00 0.01 0.01 69 1010.3
20260510010644 84 208 0.0 0.0 0.00 0.01 0.01 68 1010.0
20260510010142 84 167 0.9 1.7 0.00 0.01 0.01 67 1010.3
20260510005637 84 160 0.9 1.7 0.00 0.01 0.01 66 1010.3
20260510005134 85 140 1.7 2.6 0.00 0.01 0.01 66 1010.0
20260510004633 85 161 1.7 2.6 0.00 0.01 0.01 65 1010.3
20260510004131 85 167 0.9 0.9 0.00 0.01 0.01 65 1010.0
20260510003627 86 152 0.9 0.9 0.00 0.01 0.01 64 1010.0
20260510003123 86 168 1.7 2.6 0.00 0.01 0.01 63 1010.3
20260510002617 86 112 1.7 1.7 0.00 0.01 0.01 63 1010.0
20260510002115 86 218 1.7 2.6 0.00 0.01 0.01 62 1010.0
20260510001612 86 112 0.9 1.7 0.00 0.01 0.01 62 1010.0
20260510001111 86 207 2.6 4.3 0.00 0.01 0.01 61 1010.0
20260510000611 87 167 1.7 1.7 0.00 0.01 0.01 61 1010.0
20260510000108 87 101 1.7 1.7 0.00 0.01 0.01 60 1010.0
20260509235604 87 65 0.9 1.7 0.00 0.01 0.01 60 1009.6
20260509235102 87 154 0.0 0.0 0.00 0.01 0.01 60 1009.6
20260509234557 87 242 0.0 0.0 0.00 0.01 0.01 60 1010.0
20260509234055 87 161 0.9 1.7 0.00 0.01 0.01 59 1009.6
20260509233553 87 254 0.0 0.9 0.00 0.01 0.01 60 1009.6
20260509233050 87 189 1.7 1.7 0.00 0.01 0.01 60 1009.6
20260509232546 88 177 1.7 2.6 0.00 0.01 0.01 59 1009.3
20260509232043 88 253 0.9 0.9 0.00 0.01 0.01 60 1009.6
20260509231539 88 231 3.5 4.3 0.00 0.01 0.01 58 1009.6
20260509231037 89 238 0.9 0.9 0.00 0.01 0.01 57 1009.6
20260509230534 89 179 1.7 1.7 0.00 0.01 0.01 55 1009.3
20260509230031 89 197 0.9 1.7 0.00 0.01 0.01 56 1009.3
20260509225526 89 253 0.0 0.0 0.00 0.01 0.01 55 1009.3
20260509225022 89 243 0.0 0.0 0.00 0.01 0.01 54 1009.6
20260509224518 89 258 0.0 0.0 0.00 0.01 0.01 53 1009.6
20260509224015 89 179 0.9 0.9 0.00 0.01 0.01 56 1009.3
20260509223512 89 167 0.0 0.0 0.00 0.01 0.01 55 1009.6
20260509223010 89 160 0.0 0.9 0.00 0.01 0.01 54 1009.6
20260509222505 88 285 0.0 0.0 0.00 0.01 0.01 54 1009.6
20260509222001 88 310 0.9 0.9 0.00 0.01 0.01 54 1009.3
20260509221457 89 254 0.9 0.9 0.00 0.01 0.01 53 1009.6
20260509220953 87 270 0.0 0.0 0.00 0.01 0.01 50 1009.6
20260509220449 88 293 0.0 0.0 0.00 0.01 0.01 51 1009.3
20260509215945 87 326 0.9 1.7 0.00 0.01 0.01 51 1009.6
20260509215441 87 270 0.0 0.0 0.00 0.01 0.01 49 1009.6
20260509214939 88 267 0.0 0.9 0.00 0.01 0.01 49 1010.0
20260509214436 87 215 0.9 1.7 0.00 0.01 0.01 51 1009.6
20260509213932 86 213 0.0 0.9 0.00 0.01 0.01 51 1010.0
20260509213428 87 267 0.0 0.0 0.00 0.01 0.01 53 1010.0
20260509212926 88 264 0.9 0.9 0.00 0.01 0.01 51 1010.3
20260509212423 87 301 2.6 2.6 0.00 0.01 0.01 51 1010.0
20260509211919 87 183 0.0 0.0 0.00 0.01 0.01 53 1010.0
20260509211415 85 273 0.9 0.9 0.00 0.01 0.01 52 1010.0
20260509210911 83 242 0.9 1.7 0.00 0.01 0.01 54 1010.3
20260509210409 84 239 0.9 0.9 0.00 0.01 0.01 58 1010.3
20260509205904 82 282 0.0 0.9 0.00 0.01 0.01 57 1010.7
20260509205403 81 322 1.7 1.7 0.00 0.01 0.01 69 1010.3
20260509204900 79 228 0.9 0.9 0.00 0.01 0.01 70 1010.7
20260509204356 77 192 0.9 0.9 0.00 0.01 0.01 73 1010.7
20260509203853 77 246 0.9 0.9 0.00 0.01 0.01 76 1010.7
20260509203349 75 255 0.0 0.0 0.00 0.01 0.01 79 1010.7
20260509202847 75 245 0.0 0.0 0.00 0.01 0.01 80 1010.0
20260509202342 74 292 0.9 0.9 0.00 0.01 0.01 79 1010.7
20260509201837 74 313 0.0 0.0 0.00 0.01 0.01 79 1010.7